PST,Max TemperatureF,Mean TemperatureF,Min TemperatureF,Max Dew PointF,MeanDew PointF,Min DewpointF,Max Humidity, Mean Humidity, Min Humidity, Max Sea Level PressureIn, Mean Sea Level PressureIn, Min Sea Level PressureIn, Max VisibilityMiles, Mean VisibilityMiles, Min VisibilityMiles, Max Wind SpeedMPH, Mean Wind SpeedMPH, Max Gust SpeedMPH,PrecipitationIn, CloudCover, Events, WindDirDegrees
2013-2-1,64,53,42,45,39,32,87,60,36,30.23,30.20,30.15,10,10,10,10,4,,0.00,0,,105
2013-2-2,66,55,44,46,40,36,93,63,35,30.29,30.24,30.21,10,10,10,8,4,,0.00,0,,105
2013-2-3,60,50,41,45,37,30,93,64,38,30.22,30.17,30.12,10,10,9,9,3,,0.00,0,,99
2013-2-4,62,52,42,46,38,28,93,62,37,30.16,30.11,30.06,10,10,9,8,4,,0.00,0,,120
2013-2-5,53,44,35,45,40,34,93,77,54,30.11,30.06,30.02,10,9,6,12,5,,0.00,0,,145
2013-2-6,55,44,33,39,35,30,100,71,47,30.15,30.12,30.09,10,10,4,8,3,,0.00,0,,153
2013-2-7,48,44,39,43,38,34,93,81,66,30.14,30.06,29.96,10,9,4,10,8,,0.03,6,,152
2013-2-8,51,42,32,39,30,21,100,67,37,29.96,29.92,29.88,10,10,10,14,5,20,0.00,1,,348
2013-2-9,51,40,30,32,27,21,81,60,41,30.07,29.99,29.93,10,10,10,10,2,,0.00,0,,163
2013-2-10,55,44,33,36,29,21,81,55,28,30.10,30.05,30.00,10,10,10,9,4,,0.00,0,,30
2013-2-11,57,48,39,34,27,19,75,48,26,30.23,30.14,30.06,10,10,10,9,4,,0.00,0,,83
2013-2-12,55,47,39,36,33,28,87,63,47,30.36,30.30,30.24,10,10,9,8,4,,0.00,0,,127
2013-2-13,57,47,37,39,36,32,87,68,48,30.31,30.27,30.21,10,9,8,8,4,,0.00,0,,161
2013-2-14,64,50,35,45,38,32,93,66,42,30.24,30.21,30.18,10,10,8,8,1,,0.00,0,,248
2013-2-15,66,54,41,43,36,28,81,54,32,30.30,30.26,30.24,10,10,10,8,2,,0.00,0,,125
2013-2-16,64,54,44,41,35,27,76,50,30,30.27,30.16,30.04,10,10,10,10,4,,0.00,0,,107
2013-2-17,62,50,39,43,38,32,87,62,41,30.04,29.99,29.96,10,10,10,10,5,,0.00,0,,129
2013-2-18,57,50,42,43,38,34,81,68,54,29.99,29.95,29.89,10,10,10,15,7,22,0.00,2,,157
2013-2-19,42,37,32,39,36,32,100,91,81,29.90,29.78,29.71,10,8,1,18,9,24,0.31,6,,161
2013-2-20,55,42,30,36,32,30,100,72,41,30.00,29.89,29.76,10,10,8,13,2,16,0.00,0,,345
2013-2-21,55,46,37,37,33,30,87,67,41,30.13,30.07,29.99,10,10,10,10,5,17,0.00,1,,5
2013-2-22,55,46,37,37,34,28,75,60,44,30.22,30.17,30.13,10,10,10,10,6,,0.00,1,,141
2013-2-23,55,48,42,43,32,18,93,58,30,30.20,30.15,30.11,10,10,9,15,8,25,0.00,3,,254
2013-2-24,60,48,37,32,25,19,70,45,29,30.23,30.17,30.14,10,10,10,9,3,,0.00,0,,324
2013-2-25,57,48,39,36,31,28,75,54,36,30.26,30.21,30.17,10,10,10,13,6,16,0.00,0,,122
2013-2-26,64,48,32,30,24,12,75,40,15,30.20,30.15,30.11,10,10,10,13,3,18,0.00,0,,351
2013-2-27,64,53,42,36,26,16,71,38,26,30.36,30.28,30.19,10,10,10,10,6,,0.00,0,,129
2013-2-28,66,55,44,39,35,30,81,49,31,30.43,30.39,30.35,10,10,10,13,5,,0.00,0,,90